St Augustine, FL 40NM ENE of St Augustine, FL (41012)

Conditions for Thursday

Daily
Weekly
Monthly
Marine Data Graph

Marine & Boating Location Search

Enter a coastal zip code for marine weather.

General Information

Location: 30.042 North -80.534 West
Buoy Type: 3-meter discus buoy
Buoy Hull: 3DV13
Payload: AMPS payload
Owned by: NDBC
Windspeed: Measured by obtained from anemometer
Sea Surface: Measured by Intake
Note: See the notice on loss of funding from the Coastal Storms Program for this station:
http://www.nws.noaa.gov/om/notification/scn14-06buoy_staugustine_fl.htm
Station 41012 has been disestablished on 02/19/2014.


Weather and Wave Data

Time Temp Humidity Wind Dominant Wave Wind Wave Wave Swell Pressure
  Air
(°F)
Water
(°F)
  Dir Speed
(kts)
Speed
(mph)
Period
(sec)
Height
(ft)
Range
(ft)
Period
(sec)
Height
(ft)
Range
(ft)
Period
(sec)
Height
(ft)
Range
(ft)
Atmo.
(in)
Tend.
(in)
20:50 66 76 41 North 23.3 26.8 10 8.20 exactly 8.2 7 6.56 5.74 - 7.38 10 4.92 4.10 - 5.74 30.04 +0.01
21:50 66 75 38 North 25.3 29.1 11 8.86 exactly 8.9 7 8.20 7.38 - 9.02 11 4.92 4.10 - 5.74 30.05 +0.02
22:50 65 75 44 North 23.3 26.8 9 9.19 exactly 9.2 8 8.20 7.38 - 9.02 9 4.92 4.10 - 5.74 30.06 +0.02
23:50 65 75 41 North 21.4 24.6 11 9.19 exactly 9.2 6 8.20 7.38 - 9.02 11 4.92 4.10 - 5.74 30.05 +0.02
00:50 64 76 45 North 21.4 24.6 10 9.51 exactly 9.5 7 6.56 5.74 - 7.38 10 6.56 5.74 - 7.38 30.05 -
01:50 65 76 47 North 19.4 22.4 8 9.19 exactly 9.2 8 9.84 9.02 - 10.66 - - - 30.04 -0.01
02:50 65 76 48 North 21.4 24.6 9 8.86 exactly 8.9 7 6.56 5.74 - 7.38 9 4.92 4.10 - 5.74 30.03 -0.02
03:50 65 75 46 North 21.4 24.6 8 8.53 exactly 8.5 8 6.56 5.74 - 7.38 11 4.92 4.10 - 5.74 30.03 -0.02
04:50 65 75 43 North 21.4 24.6 9 8.86 exactly 8.9 7 6.56 5.74 - 7.38 9 4.92 4.10 - 5.74 30.04 -
05:50 65 75 41 North 21.4 24.6 11 10.17 exactly 10.2 6 8.20 7.38 - 9.02 11 6.56 5.74 - 7.38 30.05 +0.02
06:50 65 75 42 North 23.3 26.8 10 10.50 exactly 10.5 6 8.20 7.38 - 9.02 10 6.56 5.74 - 7.38 30.07 +0.04
07:50 64 75 46 North 21.4 24.6 9 11.15 exactly 11.2 8 8.20 7.38 - 9.02 9 8.20 7.38 - 9.02 30.09 +0.05
08:50 64 75 45 North 23.3 26.8 10 10.50 exactly 10.5 6 8.20 7.38 - 9.02 10 6.56 5.74 - 7.38 30.10 +0.05
09:50 64 75 43 North 23.3 26.8 - - - - - - 30.12 +0.05
10:50 63 75 39 North 23.3 26.8 8 10.50 exactly 10.5 8 8.20 7.38 - 9.02 11 6.56 5.74 - 7.38 30.13 +0.04
11:50 63 75 41 North 21.4 24.6 8 10.50 exactly 10.5 8 8.20 7.38 - 9.02 11 4.92 4.10 - 5.74 30.12 +0.02
12:50 63 75 41 North 21.4 24.6 10 9.84 exactly 9.8 7 8.20 7.38 - 9.02 10 6.56 5.74 - 7.38 30.11 -0.01
13:50 63 75 41 North 21.4 24.6 - - - - - - 30.09 -0.04
14:50 63 75 40 North 21.4 24.6 12 9.84 exactly 9.8 6 8.20 7.38 - 9.02 12 6.56 5.74 - 7.38 30.09 -0.04
15:50 63 75 42 North 19.4 22.4 11 9.84 exactly 9.8 6 6.56 5.74 - 7.38 11 6.56 5.74 - 7.38 30.10 -
16:50 63 75 42 North 21.4 24.6 11 9.51 exactly 9.5 7 8.20 7.38 - 9.02 11 6.56 5.74 - 7.38 30.12 +0.02
18:50 63 74 40 North 21.4 24.6 11 9.51 exactly 9.5 8 6.56 5.74 - 7.38 11 6.56 5.74 - 7.38 30.13 +0.03
19:50 64 74 34 North 19.4 22.4 12 9.51 exactly 9.5 8 6.56 5.74 - 7.38 12 6.56 5.74 - 7.38 30.15 +0.04
20:50 64 74 36 North 17.5 20.1 10 9.84 exactly 9.8 6 6.56 5.74 - 7.38 10 8.20 7.38 - 9.02 30.17 +0.05
22:50 65 73 31 North 15.6 17.9 10 8.86 exactly 8.9 6 4.92 4.10 - 5.74 10 6.56 5.74 - 7.38 30.16 +0.01
23:50 65 73 30 North 15.6 17.9 9 8.20 exactly 8.2 7 4.92 4.10 - 5.74 9 6.56 5.74 - 7.38 30.15 -0.02
00:50 65 73 32 North 13.6 15.7 11 8.86 exactly 8.9 7 4.92 4.10 - 5.74 11 8.20 7.38 - 9.02 30.15 -0.02
01:50 65 73 35 North 13.6 15.7 11 8.86 exactly 8.9 5 3.28 2.46 - 4.10 11 8.20 7.38 - 9.02 30.15 -0.01
02:50 65 74 34 North 13.6 15.7 12 8.86 exactly 8.9 5 3.28 2.46 - 4.10 12 8.20 7.38 - 9.02 30.14 -0.01
03:50 65 74 33 North 13.6 15.7 11 8.53 exactly 8.5 5 3.28 2.46 - 4.10 11 8.20 7.38 - 9.02 30.13 -0.02

Detailed Wave Spectra

Time Water Depth Wave Height Spectral Peak Period Average Wave Period Sampling Interval Wave Record
20:00 125 ft 8.33 ft 11.4 sec 5.8 sec 0.6 sec 2400 sec
21:00 125 ft 8.17 ft 10.0 sec 5.9 sec 0.6 sec 2400 sec
22:00 125 ft 8.92 ft 11.4 sec 5.9 sec 0.6 sec 2400 sec
23:00 125 ft 9.12 ft 9.1 sec 6.1 sec 0.6 sec 2400 sec
00:00 125 ft 9.15 ft 10.8 sec 6.2 sec 0.6 sec 2400 sec
01:00 125 ft 9.42 ft 10.0 sec 6.4 sec 0.6 sec 2400 sec
02:00 125 ft 9.28 ft 8.3 sec 6.3 sec 0.6 sec 2400 sec
03:00 125 ft 8.86 ft 9.1 sec 6.1 sec 0.6 sec 2400 sec
04:00 125 ft 8.50 ft 7.7 sec 6.2 sec 0.6 sec 2400 sec
05:00 125 ft 8.99 ft 9.1 sec 6.3 sec 0.6 sec 2400 sec
06:00 125 ft 10.24 ft 10.8 sec 6.7 sec 0.6 sec 2400 sec
07:00 125 ft 10.66 ft 10.0 sec 6.8 sec 0.6 sec 2400 sec
08:00 125 ft 11.09 ft 9.1 sec 6.6 sec 0.6 sec 2400 sec
09:00 125 ft 10.50 ft 10.0 sec 6.6 sec 0.6 sec 2400 sec
11:00 125 ft 10.47 ft 8.3 sec 6.5 sec 0.6 sec 2400 sec
12:00 125 ft 10.40 ft 8.3 sec 6.4 sec 0.6 sec 2400 sec
13:00 125 ft 9.81 ft 10.0 sec 6.3 sec 0.6 sec 2400 sec
15:00 125 ft 9.78 ft 12.1 sec 6.4 sec 0.6 sec 2400 sec
16:00 125 ft 10.01 ft 11.4 sec 6.6 sec 0.6 sec 2400 sec
17:00 125 ft 9.55 ft 11.4 sec 6.3 sec 0.6 sec 2400 sec
18:00 125 ft 8.63 ft 9.1 sec 6.2 sec 0.6 sec 2400 sec
19:00 125 ft 9.55 ft 10.8 sec 6.6 sec 0.6 sec 2400 sec
20:00 125 ft 9.48 ft 12.1 sec 6.6 sec 0.6 sec 2400 sec
21:00 125 ft 9.68 ft 10.0 sec 6.7 sec 0.6 sec 2400 sec
22:00 125 ft 9.02 ft 10.8 sec 6.7 sec 0.6 sec 2400 sec
23:00 125 ft 8.76 ft 10.0 sec 6.8 sec 0.6 sec 2400 sec
00:00 125 ft 8.37 ft 9.1 sec 6.5 sec 0.6 sec 2400 sec
01:00 125 ft 8.86 ft 11.4 sec 7.0 sec 0.6 sec 2400 sec
02:00 125 ft 8.96 ft 10.8 sec 7.4 sec 0.6 sec 2400 sec
03:00 125 ft 8.73 ft 12.1 sec 7.5 sec 0.6 sec 2400 sec